Time,TemperatureF,DewpointF,PressureIn,WindDirection,WindDirectionDegrees,WindSpeedMPH,WindSpeedGustMPH,Humidity,HourlyPrecipIn,Conditions,Clouds,dailyrainin,SoftwareType,DateUTC
2013-09-19 00:00:00,76.2,69.9,29.95,East,95,4.0,5.0,81,0.00,,,0.00,Wunderground v.1.15,2013-09-19 10:00:00,
2013-09-19 00:05:00,76.4,69.8,29.95,ENE,78,4.0,5.0,80,0.00,,,0.00,Wunderground v.1.15,2013-09-19 10:05:00,
2013-09-19 00:15:00,76.3,69.7,29.95,East,83,4.0,5.0,80,0.00,,,0.00,Wunderground v.1.15,2013-09-19 10:15:00,
2013-09-19 00:25:00,76.2,69.6,29.95,East,92,4.0,5.0,80,0.00,,,0.00,Wunderground v.1.15,2013-09-19 10:25:00,
2013-09-19 00:35:00,76.0,69.4,29.94,ESE,109,4.0,5.0,80,0.00,,,0.00,Wunderground v.1.15,2013-09-19 10:35:00,
2013-09-19 00:45:00,75.8,69.2,29.94,ESE,105,3.0,7.0,80,0.00,,,0.00,Wunderground v.1.15,2013-09-19 10:45:00,
2013-09-19 00:55:00,75.8,68.8,29.94,East,80,4.0,4.0,79,0.00,,,0.00,Wunderground v.1.15,2013-09-19 10:55:00,
2013-09-19 01:05:00,75.6,69.0,29.94,ESE,111,3.0,4.0,80,0.00,,,0.00,Wunderground v.1.15,2013-09-19 11:05:00,
2013-09-19 01:15:00,75.4,68.8,29.94,East,90,2.0,6.0,80,0.00,,,0.00,Wunderground v.1.15,2013-09-19 11:15:00,
2013-09-19 01:25:00,75.4,68.8,29.94,ESE,105,3.0,4.0,80,0.00,,,0.00,Wunderground v.1.15,2013-09-19 11:25:00,
2013-09-19 01:35:00,75.4,68.8,29.93,East,94,3.0,8.0,80,0.00,,,0.00,Wunderground v.1.15,2013-09-19 11:35:00,
2013-09-19 01:45:00,75.5,68.9,29.93,ENE,76,4.0,5.0,80,0.00,,,0.00,Wunderground v.1.15,2013-09-19 11:45:00,
2013-09-19 01:55:00,75.5,68.9,29.93,ENE,78,4.0,7.0,80,0.00,,,0.00,Wunderground v.1.15,2013-09-19 11:55:00,
2013-09-19 02:05:00,75.3,69.1,29.93,East,99,2.0,4.0,81,0.00,,,0.00,Wunderground v.1.15,2013-09-19 12:05:00,
2013-09-19 02:15:00,75.4,69.2,29.93,East,95,4.0,4.0,81,0.00,,,0.00,Wunderground v.1.15,2013-09-19 12:15:00,
2013-09-19 02:25:00,75.3,69.1,29.93,ESE,103,2.0,3.0,81,0.00,,,0.00,Wunderground v.1.15,2013-09-19 12:25:00,
2013-09-19 02:30:00,75.2,69.0,29.92,East,97,2.0,2.0,81,0.00,,,0.00,Wunderground v.1.15,2013-09-19 12:30:00,
2013-09-19 02:40:00,75.1,68.9,29.93,ESE,104,2.0,2.0,81,0.00,,,0.00,Wunderground v.1.15,2013-09-19 12:40:00,
2013-09-19 02:50:00,75.2,68.6,29.92,ESE,109,2.0,4.0,80,0.00,,,0.00,Wunderground v.1.15,2013-09-19 12:50:00,
2013-09-19 03:00:00,75.4,68.8,29.92,East,84,2.0,2.0,80,0.00,,,0.00,Wunderground v.1.15,2013-09-19 13:00:00,
2013-09-19 03:05:00,75.3,69.1,29.92,East,83,2.0,6.0,81,0.00,,,0.00,Wunderground v.1.15,2013-09-19 13:05:00,
2013-09-19 03:15:00,75.2,69.0,29.92,East,95,2.0,4.0,81,0.00,,,0.00,Wunderground v.1.15,2013-09-19 13:15:00,
2013-09-19 03:20:00,75.2,68.6,29.92,East,82,2.0,2.0,80,0.00,,,0.00,Wunderground v.1.15,2013-09-19 13:20:00,
2013-09-19 03:30:00,75.2,68.6,29.92,ENE,75,2.0,2.0,80,0.00,,,0.00,Wunderground v.1.15,2013-09-19 13:30:00,
2013-09-19 03:40:00,75.2,69.0,29.92,East,90,2.0,6.0,81,0.00,,,0.00,Wunderground v.1.15,2013-09-19 13:40:00,
2013-09-19 03:50:00,75.4,69.2,29.92,East,86,3.0,3.0,81,0.00,,,0.00,Wunderground v.1.15,2013-09-19 13:50:00,
2013-09-19 04:00:00,75.3,68.7,29.92,East,98,2.0,2.0,80,0.00,,,0.00,Wunderground v.1.15,2013-09-19 14:00:00,
2013-09-19 04:05:00,75.4,68.8,29.92,ENE,75,3.0,3.0,80,0.00,,,0.00,Wunderground v.1.15,2013-09-19 14:05:00,
2013-09-19 04:15:00,75.5,68.5,29.92,East,87,3.0,3.0,79,0.00,,,0.00,Wunderground v.1.15,2013-09-19 14:15:00,
2013-09-19 04:25:00,75.6,69.0,29.91,ENE,64,3.0,7.0,80,0.00,,,0.00,Wunderground v.1.15,2013-09-19 14:25:00,
2013-09-19 04:35:00,75.8,68.8,29.91,East,79,5.0,12.0,79,0.00,,,0.00,Wunderground v.1.15,2013-09-19 14:35:00,
2013-09-19 04:45:00,75.8,68.8,29.91,ESE,106,4.0,5.0,79,0.00,,,0.00,Wunderground v.1.15,2013-09-19 14:45:00,
2013-09-19 04:55:00,75.7,69.1,29.91,NE,49,3.0,4.0,80,0.00,,,0.00,Wunderground v.1.15,2013-09-19 14:55:00,
2013-09-19 05:05:00,75.7,69.1,29.91,East,93,4.0,5.0,80,0.00,,,0.00,Wunderground v.1.15,2013-09-19 15:05:00,
2013-09-19 05:15:00,75.7,69.1,29.92,East,97,5.0,8.0,80,0.00,,,0.00,Wunderground v.1.15,2013-09-19 15:15:00,
2013-09-19 05:25:00,75.6,69.0,29.92,East,98,4.0,11.0,80,0.00,,,0.00,Wunderground v.1.15,2013-09-19 15:25:00,
2013-09-19 05:35:00,75.5,68.9,29.92,ENE,59,3.0,6.0,80,0.00,,,0.00,Wunderground v.1.15,2013-09-19 15:35:00,
2013-09-19 05:45:00,75.5,68.9,29.92,East,101,4.0,5.0,80,0.00,,,0.00,Wunderground v.1.15,2013-09-19 15:45:00,
2013-09-19 05:55:00,75.4,68.8,29.93,ENE,68,4.0,4.0,80,0.00,,,0.00,Wunderground v.1.15,2013-09-19 15:55:00,
2013-09-19 06:05:00,75.4,68.8,29.93,East,86,3.0,3.0,80,0.00,,,0.00,Wunderground v.1.15,2013-09-19 16:05:00,
2013-09-19 06:15:00,75.5,68.9,29.93,ENE,69,3.0,3.0,80,0.00,,,0.00,Wunderground v.1.15,2013-09-19 16:15:00,
2013-09-19 06:25:00,75.7,69.1,29.93,East,84,4.0,5.0,80,0.00,,,0.00,Wunderground v.1.15,2013-09-19 16:25:00,
2013-09-19 06:30:00,75.8,68.4,29.93,ESE,107,5.0,5.0,78,0.00,,,0.00,Wunderground v.1.15,2013-09-19 16:30:00,
2013-09-19 06:40:00,75.8,68.8,29.94,ENE,71,4.0,4.0,79,0.00,,,0.00,Wunderground v.1.15,2013-09-19 16:40:00,
2013-09-19 06:50:00,75.8,68.8,29.95,East,90,3.0,3.0,79,0.00,,,0.00,Wunderground v.1.15,2013-09-19 16:50:00,
2013-09-19 07:00:00,76.4,69.0,29.95,East,90,5.0,5.0,78,0.00,,,0.00,Wunderground v.1.15,2013-09-19 17:00:00,
2013-09-19 07:05:00,76.7,69.3,29.95,SE,136,5.0,5.0,78,0.00,,,0.00,Wunderground v.1.15,2013-09-19 17:05:00,
2013-09-19 07:15:00,77.0,68.9,29.96,ENE,65,4.0,4.0,76,0.00,,,0.00,Wunderground v.1.15,2013-09-19 17:15:00,
2013-09-19 07:20:00,76.9,69.1,29.96,ENE,75,4.0,4.0,77,0.00,,,0.00,Wunderground v.1.15,2013-09-19 17:20:00,
2013-09-19 07:30:00,76.6,69.2,29.97,East,90,3.0,3.0,78,0.00,,,0.00,Wunderground v.1.15,2013-09-19 17:30:00,
2013-09-19 07:40:00,76.6,69.6,29.98,ESE,105,5.0,12.0,79,0.00,,,0.00,Wunderground v.1.15,2013-09-19 17:40:00,
2013-09-19 07:50:00,75.8,70.3,29.98,ESE,109,4.0,4.0,83,0.00,,,0.00,Wunderground v.1.15,2013-09-19 17:50:00,
2013-09-19 08:00:00,75.5,70.3,29.98,East,82,3.0,3.0,84,0.00,,,0.00,Wunderground v.1.15,2013-09-19 18:00:00,
2013-09-19 08:05:00,75.7,70.5,29.98,ESE,114,3.0,7.0,84,0.00,,,0.00,Wunderground v.1.15,2013-09-19 18:05:00,
2013-09-19 08:15:00,77.5,71.2,29.98,East,98,4.0,9.0,81,0.00,,,0.00,Wunderground v.1.15,2013-09-19 18:15:00,
2013-09-19 08:25:00,78.8,71.0,29.99,East,84,5.0,6.0,77,0.00,,,0.00,Wunderground v.1.15,2013-09-19 18:25:00,
2013-09-19 08:35:00,79.5,70.9,29.99,ESE,107,6.0,6.0,75,0.00,,,0.00,Wunderground v.1.15,2013-09-19 18:35:00,
2013-09-19 08:45:00,80.2,71.2,29.99,NE,53,5.0,9.0,74,0.00,,,0.00,Wunderground v.1.15,2013-09-19 18:45:00,
2013-09-19 08:55:00,80.5,70.2,29.99,East,95,4.0,6.0,71,0.00,,,0.00,Wunderground v.1.15,2013-09-19 18:55:00,
2013-09-19 09:05:00,80.3,70.9,29.99,NE,44,4.0,6.0,73,0.00,,,0.00,Wunderground v.1.15,2013-09-19 19:05:00,
2013-09-19 09:15:00,81.2,70.9,30.00,East,99,5.0,5.0,71,0.00,,,0.00,Wunderground v.1.15,2013-09-19 19:15:00,
2013-09-19 09:25:00,81.3,71.0,30.00,ENE,75,6.0,6.0,71,0.00,,,0.00,Wunderground v.1.15,2013-09-19 19:25:00,
2013-09-19 09:30:00,81.2,70.5,29.99,East,90,7.0,7.0,70,0.00,,,0.00,Wunderground v.1.15,2013-09-19 19:30:00,
2013-09-19 09:40:00,81.6,70.4,30.00,ENE,77,7.0,7.0,69,0.00,,,0.00,Wunderground v.1.15,2013-09-19 19:40:00,
2013-09-19 09:50:00,81.9,70.7,30.00,ENE,71,6.0,6.0,69,0.00,,,0.00,Wunderground v.1.15,2013-09-19 19:50:00,
2013-09-19 09:55:00,81.9,70.7,30.00,SE,125,7.0,9.0,69,0.00,,,0.00,Wunderground v.1.15,2013-09-19 19:55:00,
2013-09-19 10:05:00,82.0,70.8,30.00,ESE,103,8.0,8.0,69,0.00,,,0.00,Wunderground v.1.15,2013-09-19 20:05:00,
2013-09-19 10:15:00,82.2,69.7,30.00,East,79,7.0,7.0,66,0.00,,,0.00,Wunderground v.1.15,2013-09-19 20:15:00,
2013-09-19 10:20:00,82.6,69.6,30.00,East,93,7.0,7.0,65,0.00,,,0.00,Wunderground v.1.15,2013-09-19 20:20:00,
2013-09-19 10:30:00,83.2,69.8,30.00,East,88,6.0,6.0,64,0.00,,,0.00,Wunderground v.1.15,2013-09-19 20:30:00,
2013-09-19 10:40:00,83.9,70.4,30.00,ESE,117,5.0,5.0,64,0.00,,,0.00,Wunderground v.1.15,2013-09-19 20:40:00,
2013-09-19 10:50:00,84.1,70.6,30.00,ESE,102,5.0,5.0,64,0.00,,,0.00,Wunderground v.1.15,2013-09-19 20:50:00,
2013-09-19 11:00:00,83.6,70.6,30.00,ENE,68,6.0,6.0,65,0.00,,,0.00,Wunderground v.1.15,2013-09-19 21:00:00,
2013-09-19 11:05:00,83.4,69.0,30.00,East,99,6.0,7.0,62,0.00,,,0.00,Wunderground v.1.15,2013-09-19 21:05:00,
2013-09-19 11:15:00,83.2,69.8,29.99,ENE,78,7.0,12.0,64,0.00,,,0.00,Wunderground v.1.15,2013-09-19 21:15:00,
2013-09-19 11:25:00,84.3,71.2,29.99,ESE,111,6.0,7.0,65,0.00,,,0.00,Wunderground v.1.15,2013-09-19 21:25:00,
2013-09-19 11:35:00,83.6,70.1,29.99,ESE,105,6.0,9.0,64,0.00,,,0.00,Wunderground v.1.15,2013-09-19 21:35:00,
2013-09-19 11:45:00,83.7,70.7,29.98,ENE,61,6.0,10.0,65,0.00,,,0.00,Wunderground v.1.15,2013-09-19 21:45:00,
2013-09-19 11:55:00,83.8,71.2,29.97,ENE,75,6.0,11.0,66,0.00,,,0.00,Wunderground v.1.15,2013-09-19 21:55:00,
2013-09-19 12:05:00,83.5,70.9,29.97,East,96,7.0,9.0,66,0.00,,,0.00,Wunderground v.1.15,2013-09-19 22:05:00,
2013-09-19 12:15:00,83.4,71.3,29.98,ESE,114,7.0,11.0,67,0.00,,,0.00,Wunderground v.1.15,2013-09-19 22:15:00,
2013-09-19 12:20:00,83.4,71.7,29.97,East,94,7.0,7.0,68,0.00,,,0.00,Wunderground v.1.15,2013-09-19 22:20:00,
2013-09-19 12:25:00,83.5,71.8,29.97,NE,46,6.0,7.0,68,0.00,,,0.00,Wunderground v.1.15,2013-09-19 22:25:00,
2013-09-19 12:35:00,83.7,71.6,29.97,ESE,106,6.0,10.0,67,0.00,,,0.00,Wunderground v.1.15,2013-09-19 22:35:00,
2013-09-19 12:45:00,83.3,70.3,29.97,ESE,102,7.0,7.0,65,0.00,,,0.00,Wunderground v.1.15,2013-09-19 22:45:00,
2013-09-19 12:55:00,83.3,70.8,29.97,East,95,7.0,8.0,66,0.00,,,0.00,Wunderground v.1.15,2013-09-19 22:55:00,
2013-09-19 13:05:00,83.0,71.8,29.97,East,89,7.0,8.0,69,0.00,,,0.00,Wunderground v.1.15,2013-09-19 23:05:00,
2013-09-19 13:15:00,83.5,70.5,29.97,East,94,7.0,10.0,65,0.00,,,0.00,Wunderground v.1.15,2013-09-19 23:15:00,
2013-09-19 13:25:00,83.8,71.7,29.96,East,79,7.0,7.0,67,0.00,,,0.00,Wunderground v.1.15,2013-09-19 23:25:00,
2013-09-19 13:35:00,83.7,71.6,29.95,ENE,69,5.0,10.0,67,0.00,,,0.00,Wunderground v.1.15,2013-09-19 23:35:00,
2013-09-19 13:45:00,84.7,72.1,29.95,ENE,68,5.0,6.0,66,0.00,,,0.00,Wunderground v.1.15,2013-09-19 23:45:00,
2013-09-19 13:55:00,83.9,71.3,29.94,ENE,73,7.0,10.0,66,0.00,,,0.00,Wunderground v.1.15,2013-09-19 23:55:00,
2013-09-19 14:05:00,84.3,71.7,29.94,ENE,67,6.0,6.0,66,0.00,,,0.00,Wunderground v.1.15,2013-09-20 00:05:00,
2013-09-19 14:15:00,83.3,71.2,29.94,East,84,6.0,7.0,67,0.00,,,0.00,Wunderground v.1.15,2013-09-20 00:15:00,
2013-09-19 14:25:00,83.8,71.7,29.94,East,80,5.0,10.0,67,0.00,,,0.00,Wunderground v.1.15,2013-09-20 00:25:00,
2013-09-19 14:35:00,83.4,71.7,29.95,East,98,7.0,7.0,68,0.00,,,0.00,Wunderground v.1.15,2013-09-20 00:35:00,
2013-09-19 14:45:00,82.9,72.1,29.94,East,82,6.0,7.0,70,0.00,,,0.00,Wunderground v.1.15,2013-09-20 00:45:00,
2013-09-19 14:55:00,82.4,71.6,29.94,NNE,31,6.0,10.0,70,0.00,,,0.00,Wunderground v.1.15,2013-09-20 00:55:00,
2013-09-19 15:05:00,82.4,72.0,29.94,ENE,63,6.0,6.0,71,0.00,,,0.00,Wunderground v.1.15,2013-09-20 01:05:00,
2013-09-19 15:15:00,82.8,71.2,29.94,East,101,5.0,7.0,68,0.00,,,0.00,Wunderground v.1.15,2013-09-20 01:15:00,
2013-09-19 15:20:00,82.5,70.9,29.94,ENE,70,6.0,6.0,68,0.00,,,0.00,Wunderground v.1.15,2013-09-20 01:20:00,
2013-09-19 15:30:00,82.3,72.0,29.94,NE,37,7.0,7.0,71,0.00,,,0.00,Wunderground v.1.15,2013-09-20 01:30:00,
2013-09-19 15:40:00,81.3,72.2,29.94,NNE,32,6.0,10.0,74,0.00,,,0.00,Wunderground v.1.15,2013-09-20 01:40:00,
2013-09-19 15:50:00,80.4,71.7,29.94,ENE,63,7.0,7.0,75,0.00,,,0.00,Wunderground v.1.15,2013-09-20 01:50:00,
2013-09-19 16:00:00,81.1,70.8,29.94,East,88,6.0,7.0,71,0.00,,,0.00,Wunderground v.1.15,2013-09-20 02:00:00,
2013-09-19 16:05:00,81.2,70.9,29.95,ESE,117,7.0,7.0,71,0.00,,,0.00,Wunderground v.1.15,2013-09-20 02:05:00,
2013-09-19 16:15:00,81.3,70.6,29.94,ENE,70,5.0,6.0,70,0.00,,,0.00,Wunderground v.1.15,2013-09-20 02:15:00,
2013-09-19 16:20:00,81.5,70.8,29.94,ESE,122,5.0,9.0,70,0.00,,,0.00,Wunderground v.1.15,2013-09-20 02:20:00,
2013-09-19 16:30:00,81.4,70.7,29.95,ESE,105,6.0,10.0,70,0.00,,,0.00,Wunderground v.1.15,2013-09-20 02:30:00,
2013-09-19 16:40:00,80.6,70.7,29.95,ENE,70,8.0,8.0,72,0.00,,,0.00,Wunderground v.1.15,2013-09-20 02:40:00,
2013-09-19 16:50:00,80.4,70.9,29.95,ENE,78,6.0,6.0,73,0.00,,,0.00,Wunderground v.1.15,2013-09-20 02:50:00,
2013-09-19 16:55:00,80.4,70.5,29.95,NE,51,6.0,6.0,72,0.00,,,0.00,Wunderground v.1.15,2013-09-20 02:55:00,
2013-09-19 17:05:00,80.6,70.3,29.95,ESE,109,5.0,6.0,71,0.00,,,0.00,Wunderground v.1.15,2013-09-20 03:05:00,
2013-09-19 17:15:00,80.1,69.4,29.95,East,96,6.0,9.0,70,0.00,,,0.00,Wunderground v.1.15,2013-09-20 03:15:00,
2013-09-19 17:25:00,79.9,69.7,29.96,ESE,108,6.0,9.0,71,0.00,,,0.00,Wunderground v.1.15,2013-09-20 03:25:00,
2013-09-19 17:35:00,79.7,69.9,29.96,East,96,5.0,5.0,72,0.00,,,0.00,Wunderground v.1.15,2013-09-20 03:35:00,
2013-09-19 17:45:00,79.5,70.1,29.96,ESE,103,4.0,7.0,73,0.00,,,0.00,Wunderground v.1.15,2013-09-20 03:45:00,
2013-09-19 17:55:00,79.0,69.6,29.96,NE,44,5.0,11.0,73,0.00,,,0.00,Wunderground v.1.15,2013-09-20 03:55:00,
2013-09-19 18:00:00,78.8,69.8,29.96,East,90,4.0,6.0,74,0.00,,,0.00,Wunderground v.1.15,2013-09-20 04:00:00,
2013-09-19 18:05:00,78.6,69.2,29.96,East,81,6.0,6.0,73,0.00,,,0.00,Wunderground v.1.15,2013-09-20 04:05:00,
2013-09-19 18:10:00,78.5,69.1,29.96,ENE,67,6.0,6.0,73,0.00,,,0.00,Wunderground v.1.15,2013-09-20 04:10:00,
2013-09-19 18:15:00,78.4,69.0,29.96,ENE,73,5.0,6.0,73,0.00,,,0.00,Wunderground v.1.15,2013-09-20 04:15:00,
2013-09-19 18:20:00,78.3,68.9,29.96,East,88,5.0,5.0,73,0.00,,,0.00,Wunderground v.1.15,2013-09-20 04:20:00,
2013-09-19 18:30:00,78.1,68.7,29.96,East,88,4.0,4.0,73,0.00,,,0.00,Wunderground v.1.15,2013-09-20 04:30:00,
2013-09-19 18:40:00,77.9,68.9,29.97,ENE,64,3.0,4.0,74,0.00,,,0.00,Wunderground v.1.15,2013-09-20 04:40:00,
2013-09-19 18:50:00,77.7,69.5,29.96,East,83,4.0,4.0,76,0.00,,,0.00,Wunderground v.1.15,2013-09-20 04:50:00,
2013-09-19 19:00:00,77.6,69.4,29.97,East,101,5.0,6.0,76,0.00,,,0.00,Wunderground v.1.15,2013-09-20 05:00:00,
2013-09-19 19:05:00,77.6,69.4,29.97,ENE,63,5.0,6.0,76,0.00,,,0.00,Wunderground v.1.15,2013-09-20 05:05:00,
2013-09-19 19:15:00,77.6,69.0,29.97,ENE,74,5.0,6.0,75,0.00,,,0.00,Wunderground v.1.15,2013-09-20 05:15:00,
2013-09-19 19:25:00,77.5,69.3,29.97,East,82,4.0,5.0,76,0.00,,,0.00,Wunderground v.1.15,2013-09-20 05:25:00,
2013-09-19 19:30:00,77.5,69.7,29.97,ENE,74,4.0,7.0,77,0.00,,,0.00,Wunderground v.1.15,2013-09-20 05:30:00,
2013-09-19 19:40:00,77.5,69.7,29.98,ENE,74,4.0,4.0,77,0.00,,,0.00,Wunderground v.1.15,2013-09-20 05:40:00,
2013-09-19 19:50:00,77.6,69.8,29.98,East,96,5.0,5.0,77,0.00,,,0.00,Wunderground v.1.15,2013-09-20 05:50:00,
2013-09-19 20:00:00,77.6,69.8,29.99,East,84,4.0,4.0,77,0.00,,,0.00,Wunderground v.1.15,2013-09-20 06:00:00,
2013-09-19 20:05:00,77.5,69.7,29.99,ESE,109,4.0,4.0,77,0.00,,,0.00,Wunderground v.1.15,2013-09-20 06:05:00,
2013-09-19 20:15:00,77.4,70.0,29.99,East,95,3.0,4.0,78,0.00,,,0.00,Wunderground v.1.15,2013-09-20 06:15:00,
2013-09-19 20:20:00,77.3,69.9,29.99,ESE,110,3.0,3.0,78,0.00,,,0.00,Wunderground v.1.15,2013-09-20 06:20:00,
2013-09-19 20:30:00,77.2,70.2,30.00,East,90,4.0,4.0,79,0.00,,,0.00,Wunderground v.1.15,2013-09-20 06:30:00,
2013-09-19 20:40:00,77.2,70.2,30.00,ESE,102,5.0,5.0,79,0.00,,,0.00,Wunderground v.1.15,2013-09-20 06:40:00,
2013-09-19 20:50:00,77.2,70.2,30.00,East,98,4.0,4.0,79,0.00,,,0.00,Wunderground v.1.15,2013-09-20 06:50:00,
2013-09-19 20:55:00,77.3,70.3,30.00,ESE,107,4.0,7.0,79,0.00,,,0.00,Wunderground v.1.15,2013-09-20 06:55:00,
2013-09-19 21:05:00,77.2,70.5,30.01,ESE,104,3.0,4.0,80,0.00,,,0.00,Wunderground v.1.15,2013-09-20 07:05:00,
2013-09-19 21:15:00,76.5,70.6,30.00,East,101,2.0,3.0,82,0.00,,,0.00,Wunderground v.1.15,2013-09-20 07:15:00,
2013-09-19 21:25:00,76.4,70.5,30.01,East,84,3.0,5.0,82,0.00,,,0.00,Wunderground v.1.15,2013-09-20 07:25:00,
2013-09-19 21:35:00,76.6,70.3,30.01,ESE,112,4.0,4.0,81,0.00,,,0.00,Wunderground v.1.15,2013-09-20 07:35:00,
2013-09-19 21:45:00,76.6,70.3,30.02,ESE,109,3.0,4.0,81,0.00,,,0.00,Wunderground v.1.15,2013-09-20 07:45:00,
2013-09-19 21:55:00,76.6,69.6,30.02,ENE,76,3.0,5.0,79,0.00,,,0.00,Wunderground v.1.15,2013-09-20 07:55:00,
2013-09-19 22:05:00,76.7,69.7,30.01,ESE,105,3.0,6.0,79,0.00,,,0.00,Wunderground v.1.15,2013-09-20 08:05:00,
2013-09-19 22:15:00,76.6,69.6,30.01,ESE,102,4.0,4.0,79,0.00,,,0.00,Wunderground v.1.15,2013-09-20 08:15:00,
2013-09-19 22:25:00,76.5,69.9,30.00,East,94,3.0,4.0,80,0.00,,,0.00,Wunderground v.1.15,2013-09-20 08:25:00,
2013-09-19 22:30:00,76.4,69.8,30.00,East,91,4.0,4.0,80,0.00,,,0.00,Wunderground v.1.15,2013-09-20 08:30:00,
2013-09-19 22:40:00,76.4,70.1,30.00,East,95,3.0,7.0,81,0.00,,,0.00,Wunderground v.1.15,2013-09-20 08:40:00,
2013-09-19 22:50:00,76.5,70.2,30.01,East,94,3.0,4.0,81,0.00,,,0.00,Wunderground v.1.15,2013-09-20 08:50:00,
2013-09-19 23:00:00,76.5,70.2,30.00,East,93,4.0,4.0,81,0.00,,,0.00,Wunderground v.1.15,2013-09-20 09:00:00,
2013-09-19 23:05:00,76.6,70.3,30.00,ENE,61,4.0,4.0,81,0.00,,,0.00,Wunderground v.1.15,2013-09-20 09:05:00,
2013-09-19 23:15:00,76.5,69.9,30.00,East,93,4.0,6.0,80,0.00,,,0.00,Wunderground v.1.15,2013-09-20 09:15:00,
2013-09-19 23:25:00,76.5,69.9,30.00,East,80,3.0,4.0,80,0.00,,,0.00,Wunderground v.1.15,2013-09-20 09:25:00,
2013-09-19 23:35:00,76.5,70.2,30.00,East,92,3.0,8.0,81,0.00,,,0.00,Wunderground v.1.15,2013-09-20 09:35:00,
2013-09-19 23:45:00,76.4,69.8,30.00,East,83,3.0,3.0,80,0.00,,,0.00,Wunderground v.1.15,2013-09-20 09:45:00,
2013-09-19 23:55:00,76.7,69.3,30.00,East,91,4.0,5.0,78,0.00,,,0.00,Wunderground v.1.15,2013-09-20 09:55:00,